Tracking 28052 objects as of 24-Sep-2023
HD Live streaming from Space Station
objects crossing your sky now

STARLINK-30092

Track STARLINK-30092 now!
10-day predictions
STARLINK-30092 is classified as:


NORAD ID: 57467
Int'l Code: 2023-107L
Perigee: 565.2 km
Apogee: 567.2 km
Inclination: 43.0 °
Period: 95.8 minutes
Semi major axis: 6937 km
RCS: Unknown
Launch date: July 28, 2023
Source: (TBD)
Launch site: AIR FORCE EASTERN TEST RANGE (AFETR)
Your satellite tracking list
Your tracking list is empty




NASA's NSSDC Master Catalog

Two Line Element Set (TLE):
1 57467U 23107L   23267.03470166  .00017028  00000-0  12723-2 0  9994
2 57467  43.0012 176.4976 0001380 259.7431 100.3256 15.02543330 10154
Source of the keplerian elements: AFSPC